Location: Lane
(33.5226°N, 79.8788°W)
Time: 21:35:52
(UTC+00:00)

Vanguard 2 Rocket - Pass Details

Date: 08 October 2022
Orbit: 555 x 3321 km, 32.9° (Epoch: 02 December)

Event Time Altitude Azimuth Distance (km) Brightness Sun altitude
Rises 03:06:04 0° 252° (WSW) 7,261 11.8 -50.6°
Reaches altitude 10° 03:11:13 10° 251° (WSW) 6,102 11.3 -51.4°
Enters shadow 03:23:05 46° 247° (WSW) 3,371 9.6 -53.3°
